Location: Chuathbaluk
(61.5726°N, 159.2454°W)
Time: 03:24:07
(UTC+00:00)

S-56A Canister/Altair - Pass Details

Date: 01 December 2020
Orbit: 633 x 2499 km, 38.9° (Epoch: 23 January)

Event Time Altitude Azimuth Distance (km) Brightness Sun altitude
Rises 08:36:54 0° 244° (WSW) 4,958 11.8 -46.1°
Enters shadow 08:39:35 - 235° (SW) 4,257 11.3 -46.3°
Reaches altitude 10° 08:43:15 10° 218° (SW) 3,449 - -46.5°
Maximum altitude 08:45:53 12° 199° (SSW) 3,091 - -46.7°
Drops below altitude 10° 08:48:15 10° 180° (S) 3,018 - -46.9°
Sets 08:52:46 0° 149° (SSE) 3,589 - -47.2°
